Albacete / Los Llanos, Spain

2:04 AM CET on February 20, 2017 (GMT +0100)
Albacete

Weather History for LEAB - September, 2013

Change the Weather History Date:

Wednesday, September 4, 2013

  Actual Average Record
Temperature  
Mean Temperature 68 °F -  
Max Temperature 83 °F - - ()
Min Temperature 53 °F - - ()
Cooling Degree Days 3    
Growing Degree Days 18 (Base 50)    
Moisture  
Dew Point 53 °F    
Average Humidity 61    
Maximum Humidity 94    
Minimum Humidity 24    
Precipitation  
Precipitation 0.00 in 0.04 in - ()
Sea Level Pressure  
Sea Level Pressure 30.17 in    
Wind  
Wind Speed 6 mph ()    
Max Wind Speed 12 mph    
Max Gust Speed -    
Visibility 18.0 miles    
Events      
T = Trace of Precipitation, MM = Missing Value Source: Averaged Metar Reports

Daily Weather History Graph

Daily Weather History Graph

Search for Another Location

Airport or City:

Trip Planner

Search our weather history database for the weather conditions in past years. The results will help you decide how hot, cold, wet, or windy it might be!

Date:

Astronomy

Sep. 04, 2013 Rise Set
Actual Time 7:38 AM CEST 8:33 PM CEST
Civil Twilight 7:11 AM CEST 9:00 PM CEST
Nautical Twilight 6:39 AM CEST 9:32 PM CEST
Astronomical Twilight 6:06 AM CEST 10:05 PM CEST
Moon 6:36 AM CEST (9/4) 7:45 PM CEST (9/4)
Length of Visible Light 13h 48m
Length of Day
12h 54m
Waning Crescent, 1% of the Moon is Illuminated
Sep 4
Waning Crescent
Sep 5
New
Sep 12
First Quarter
Sep 19
Full
Sep 27
Last Quarter

Hourly Weather History & Observations

Time (CEST) Temp. Dew Point Humidity Pressure Visibility Wind Dir Wind Speed Gust Speed Precip Events Conditions
12:00 AM 66.2 °F 57.2 °F 73% 30.27 in - SSE 6.9 mph - N/A   Clear
1:00 AM 64.4 °F 57.2 °F 77% 30.27 in - Variable 2.3 mph - N/A   Clear
2:00 AM 63 °F 57 °F 74% 30.19 in 16 mi East 4.6 mph - -  
2:00 AM 60.8 °F 55.4 °F 82% 30.24 in - East 4.6 mph - N/A   Clear
3:00 AM 60.8 °F 55.4 °F 82% 30.24 in - Variable 2.3 mph - N/A   Clear
4:00 AM 59.0 °F 55.4 °F 88% 30.21 in - ESE 5.8 mph - N/A   Clear
5:00 AM 57.2 °F 53.6 °F 88% 30.21 in - ESE 5.8 mph - N/A   Clear
6:00 AM 55.4 °F 53.6 °F 94% 30.21 in - SSE 6.9 mph - N/A   Clear
7:00 AM 55.4 °F 53.6 °F 94% 30.21 in - ESE 4.6 mph - N/A   Clear
8:00 AM 53.6 °F 51.8 °F 94% 30.21 in - ESE 4.6 mph - N/A   Clear
9:00 AM 59.0 °F 55.4 °F 88% 30.21 in - SE 4.6 mph - N/A   Clear
10:00 AM 66.2 °F 55.4 °F 68% 30.21 in - SE 6.9 mph - N/A   Clear
11:00 AM 69.8 °F 57.2 °F 64% 30.21 in - SSE 11.5 mph - N/A   Clear
12:00 PM 73.4 °F 53.6 °F 50% 30.21 in - SE 9.2 mph - N/A   Clear
1:00 PM 75.2 °F 53.6 °F 47% 30.21 in - SE 10.4 mph - N/A   Clear
2:00 PM 78 °F 48 °F 24% 30.06 in 19 mi 8.1 mph - -  
2:00 PM 77.0 °F 48.2 °F 36% 30.18 in - Variable 8.1 mph - N/A   Clear
3:00 PM 78.8 °F 42.8 °F 28% 30.15 in - ESE 9.2 mph - N/A   Clear
4:00 PM 80.6 °F 46.4 °F 30% 30.12 in - SSE 10.4 mph - N/A   Clear
5:00 PM 80.6 °F 44.6 °F 28% 30.12 in - SE 6.9 mph - N/A   Clear
6:00 PM 80.6 °F 42.8 °F 26% 30.09 in - SE 9.2 mph - N/A   Clear
7:00 PM 78.8 °F 48.2 °F 34% 30.09 in - SSE 9.2 mph - N/A   Clear
8:00 PM 77 °F 53 °F 33% 29.97 in 19 mi South 6.9 mph - -  
8:00 PM 75.2 °F 53.6 °F 47% 30.09 in - South 6.9 mph - N/A   Clear
9:00 PM 69.8 °F 55.4 °F 60% 30.09 in - SSE 6.9 mph - N/A   Clear
10:00 PM 68.0 °F 55.4 °F 64% 30.12 in - SSE 6.9 mph - N/A   Clear
11:00 PM 64.4 °F 55.4 °F 73% 30.12 in - SE 4.6 mph - N/A   Clear